[[{"header":{"parameterUnit":"m.s-1","parameterCategory":1,"la1":30.2991,"la2":30.254,"lo1":-89.0895,"lo2":-89.0444,"dy":0.0017,"dx":0.0017,"nx":28,"ny":28,"refTime":"2023-11-04T21:00:00:Z","depth":0,"parameterNumber":2,"parameterNumberName":"U-component_of_WINDS"},"data":[0,0,0,0,0,0,0,0,0,0,0,0,0,0,0,0,0,0,0,0,0,0,0,0,0,0,0,0,0,0,0,0,0,0,0,0,0,0,0,0,0,0,0,0,0,0,0,0,0,0,0,0,0,0,0,0,0,0,0.5195,0.5195,0,0.5139,0.5138,0.5138,0.5093,0.5093,0.5093,0.5092,0.5033,0.5032,0.5031,0,0,0,0,0,0,0,0,0,0,0,0,0,0.5264,0.5263,0.5195,0.5195,0.5194,0.5139,0.5138,0.5137,0.5093,0.5093,0.5092,0.5092,0.5034,0.5032,0.5031,0,0,0,0,0,0,0,0,0,0,0,0,0,0.5223,0.5263,0.5195,0.5165,0.5162,0.5139,0.5138,0.5137,0.5094,0.5093,0.5092,0.5092,0.5034,0.5032,0.5031,0.5033,0,0,0.5025,0.5025,0,0,0,0,0,0,0,0,0.5226,0.5221,0.517,0.5167,0.5164,0.5123,0.5141,0.5102,0.5094,0.512,0.5092,0.5091,0.5063,0.5059,0.505,0.503,0.5028,0.5025,0.5024,0.5023,0.5023,0,0,0,0,0,0,0,0.5229,0.5223,0.5173,0.517,0.5166,0.5154,0.5148,0.5133,0.5096,0.5117,0.5114,0.5108,0.5061,0.5052,0.5048,0.5027,0.5025,0.5024,0.5023,0.5022,0.5006,0.5007,0,0,0,0,0,0,0.5236,0.5226,0.5175,0.5171,0.5194,0.5154,0.5146,0.5136,0.5096,0.5089,0.5109,0.5106,0.5055,0.505,0.5046,0.5046,0.5023,0.5022,0.5021,0.5006,0.5006,0.5007,0,0,0,0,0,0,0.5238,0.5232,0.5177,0.5198,0.519,0.5153,0.5142,0.5136,0.5126,0.5089,0.5082,0.5106,0.5054,0.5049,0.5037,0.5044,0.5021,0.5019,0.5005,0.5006,0.5007,0.5047,0,0,0,0,0,0,0.524,0.5233,0.5234,0.5198,0.5189,0.5169,0.5143,0.5135,0.5123,0.5119,0.5085,0.5078,0.5054,0.504,0.5035,0.5041,0.5018,0.5004,0.5005,0.5006,0.5045,0.5049,0.5053,0,0,0,0,0,0.5243,0.5247,0.5234,0.5228,0.5189,0.5169,0.5164,0.5136,0.5124,0.5124,0.5101,0.5079,0.5044,0.5039,0.5033,0.5039,0.5003,0.5005,0.5006,0.5043,0.5048,0.5053,0,0,0,0,0,0,0.5284,0.5242,0.5227,0.5219,0.5198,0.5162,0.5161,0.5142,0.5124,0.5121,0.5086,0.5079,0.5071,0.5053,0.5049,0.5039,0.5021,0.5021,0.5051,0.5055,0.5059,0.5064,0.5017,0,0,0,0,0,0.5292,0.528,0.5244,0.5241,0.5231,0.5198,0.5189,0.5169,0.5145,0.5136,0.5112,0.5089,0.5073,0.5063,0.5046,0.5042,0.5034,0.5043,0.5047,0.505,0.5051,0.5048,0.5052,0.5012,0.5012,0.5012,0,0,0.5309,0.5284,0.5279,0.5248,0.523,0.5218,0.5191,0.5179,0.517,0.5134,0.5122,0.5103,0.5076,0.5068,0.5063,0.5053,0.5061,0.5052,0.5055,0.5054,0.505,0.5054,0.5057,0.5013,0.5012,0.5012,0,0,0.5334,0.5314,0.5309,0.5291,0.5264,0.5242,0.5241,0.5208,0.5194,0.5181,0.5154,0.5142,0.5115,0.5097,0.5084,0.5103,0.5083,0.5098,0.5119,0.5117,0.512,0.5123,0.513,0.5132,0.5099,0.5099,0.5099,0,0.5358,0.5339,0.531,0.53,0.5288,0.5255,0.525,0.5234,0.5202,0.5194,0.5183,0.5149,0.5128,0.5116,0.5121,0.5111,0.5109,0.5102,0.5122,0.5124,0.5126,0.5133,0.5135,0.5101,0.5101,0.5101,0.5101,0,0.5371,0.5359,0.5358,0.5329,0.5317,0.531,0.5279,0.5269,0.5251,0.523,0.5218,0.5192,0.5169,0.5165,0.5146,0.515,0.5145,0.5128,0.511,0.5133,0.5138,0.514,0.5104,0.5104,0.5103,0.5102,0,0,0.542,0.5375,0.5375,0.5362,0.5329,0.5319,0.531,0.5289,0.5282,0.5261,0.5253,0.5231,0.5216,0.5201,0.518,0.5178,0.5195,0.5162,0.5161,0.517,0.5198,0.5211,0.5215,0.5182,0.5182,0.5182,0.5201,0,0.544,0.5423,0.5396,0.5389,0.5377,0.5346,0.5339,0.5318,0.5298,0.5285,0.5263,0.5249,0.523,0.5221,0.5217,0.5194,0.5201,0.5192,0.5174,0.5174,0.5182,0.5217,0.5231,0.5249,0.5203,0.5203,0.5203,0,0.5461,0.5443,0.5434,0.5403,0.5397,0.5391,0.5369,0.5357,0.5333,0.5319,0.5303,0.5281,0.527,0.5253,0.5238,0.5233,0.5223,0.5211,0.5211,0.5208,0.519,0.5216,0.5255,0.5258,0.5206,0.5206,0.5206,0,0.5498,0.5471,0.5463,0.5452,0.5415,0.5412,0.5396,0.5371,0.536,0.5341,0.5334,0.5313,0.5302,0.5287,0.526,0.525,0.5248,0.5228,0.5236,0.5237,0.5237,0.5238,0.5275,0.5231,0.5231,0.5231,0.5231,0,0.5524,0.552,0.5479,0.5474,0.5469,0.5438,0.5433,0.5415,0.5393,0.5383,0.5355,0.5346,0.531,0.5298,0.5276,0.5267,0.5262,0.525,0.5245,0.5253,0.5255,0.5247,0.5245,0.5231,0.5231,0.5231,0.5231,0,0.5565,0.5537,0.5526,0.5492,0.5484,0.5481,0.5452,0.5446,0.5425,0.5413,0.5409,0.5376,0.5359,0.533,0.5306,0.5291,0.5287,0.5277,0.5295,0.5292,0.5301,0.5301,0.5336,0.5339,0.5292,0.5293,0.5293,0,0.5583,0.5579,0.5545,0.5537,0.5523,0.551,0.5499,0.5468,0.5458,0.543,0.5427,0.5409,0.5392,0.5368,0.5341,0.5322,0.5312,0.5325,0.5309,0.5318,0.5313,0.5314,0.5313,0.5329,0.533,0.5331,0.5331,0,0.5618,0.5605,0.559,0.5571,0.5559,0.5542,0.5524,0.5518,0.5483,0.5473,0.5456,0.5444,0.5419,0.5401,0.5379,0.5362,0.5341,0.5337,0.5337,0.5346,0.5357,0.5352,0.5306,0.5336,0.5335,0.5335,0.5335,0.5335,0.5649,0.5644,0.562,0.5605,0.5588,0.5571,0.5564,0.5542,0.5528,0.5506,0.5489,0.5474,0.5449,0.5417,0.5401,0.5389,0.5379,0.538,0.5381,0.5381,0.5385,0.5359,0.5385,0.5384,0.5384,0.5384,0.5384,0,0.5683,0.5666,0.5652,0.5628,0.5616,0.5598,0.5576,0.5568,0.5555,0.5534,0.5519,0.55,0.5483,0.5455,0.5436,0.5431,0.5421,0.5427,0.5427,0.5424,0.5395,0.5396,0.5436,0.5436,0.5436,0.5436,0.5436,0.5436,0.57,0.5692,0.5676,0.5659,0.5641,0.5627,0.5617,0.5601,0.5585,0.5565,0.5551,0.5533,0.551,0.5489,0.5472,0.5464,0.5458,0.5468,0.5457,0.5431,0.5426,0.5421,0.5422,0.5467,0.5467,0.5487,0.5487,0.5487]},{"header":{"parameterUnit":"m.s-1","parameterCategory":1,"la1":30.2991,"la2":30.254,"lo1":-89.0895,"lo2":-89.0444,"dy":0.0017,"dx":0.0017,"nx":28,"ny":28,"refTime":"2023-11-04T21:00:00:Z","depth":0,"parameterNumber":3,"parameterNumberName":"V-component_of_WINDS"},"data":[0,0,0,0,0,0,0,0,0,0,0,0,0,0,0,0,0,0,0,0,0,0,0,0,0,0,0,0,0,0,0,0,0,0,0,0,0,0,0,0,0,0,0,0,0,0,0,0,0,0,0,0,0,0,0,0,0,0,-2.2204,-2.2204,0,-2.2231,-2.2231,-2.2232,-2.2189,-2.2187,-2.2186,-2.2184,-2.221,-2.2212,-2.2214,0,0,0,0,0,0,0,0,0,0,0,0,0,-2.2114,-2.2116,-2.2204,-2.2204,-2.2205,-2.2231,-2.2231,-2.2232,-2.2189,-2.2187,-2.2185,-2.2184,-2.2209,-2.2212,-2.2214,0,0,0,0,0,0,0,0,0,0,0,0,0,-2.2148,-2.2116,-2.2204,-2.2187,-2.2185,-2.2231,-2.2231,-2.2232,-2.2189,-2.2187,-2.2185,-2.2183,-2.2208,-2.2211,-2.2214,-2.2278,0,0,-2.2224,-2.2225,0,0,0,0,0,0,0,0,-2.2146,-2.2151,-2.2189,-2.2188,-2.2187,-2.2204,-2.2209,-2.2247,-2.219,-2.2188,-2.2184,-2.2182,-2.221,-2.2212,-2.2222,-2.2279,-2.228,-2.2224,-2.2226,-2.2227,-2.2228,0,0,0,0,0,0,0,-2.2144,-2.215,-2.2215,-2.2189,-2.2188,-2.2177,-2.2179,-2.2216,-2.2211,-2.2188,-2.2185,-2.2189,-2.2209,-2.2219,-2.2223,-2.228,-2.2224,-2.2227,-2.2229,-2.223,-2.239,-2.2393,0,0,0,0,0,0,-2.2144,-2.2148,-2.2214,-2.2215,-2.2161,-2.218,-2.2183,-2.2201,-2.221,-2.2209,-2.219,-2.2186,-2.2215,-2.2219,-2.2223,-2.2298,-2.2227,-2.223,-2.2232,-2.2388,-2.2391,-2.2393,0,0,0,0,0,0,-2.2142,-2.215,-2.2213,-2.2181,-2.2188,-2.2184,-2.2204,-2.2202,-2.2213,-2.2212,-2.2211,-2.2203,-2.2214,-2.2219,-2.2265,-2.2299,-2.2231,-2.2234,-2.2385,-2.2389,-2.2392,-2.2449,0,0,0,0,0,0,-2.214,-2.215,-2.2174,-2.2182,-2.219,-2.2254,-2.2207,-2.2205,-2.2219,-2.2214,-2.2223,-2.2223,-2.2212,-2.226,-2.2268,-2.2302,-2.2237,-2.2382,-2.2387,-2.2391,-2.2444,-2.2454,-2.2463,0,0,0,0,0,-2.2137,-2.2188,-2.2176,-2.2184,-2.2221,-2.2256,-2.2261,-2.2249,-2.2222,-2.2246,-2.2246,-2.2222,-2.2294,-2.2265,-2.2273,-2.2309,-2.238,-2.2385,-2.2391,-2.244,-2.2452,-2.2463,0,0,0,0,0,0,-2.2184,-2.2189,-2.2175,-2.2231,-2.2244,-2.2249,-2.2279,-2.2262,-2.2282,-2.2276,-2.2259,-2.2262,-2.2311,-2.2314,-2.2283,-2.2371,-2.2332,-2.234,-2.2367,-2.2379,-2.2388,-2.2386,-2.2239,0,0,0,0,0,-2.2201,-2.223,-2.2233,-2.2282,-2.2289,-2.2283,-2.2298,-2.2288,-2.23,-2.2305,-2.2308,-2.232,-2.2345,-2.2362,-2.2385,-2.2444,-2.2446,-2.2472,-2.2482,-2.2489,-2.2496,-2.2528,-2.2541,-2.2411,-2.2411,-2.2411,0,0,-2.2236,-2.2243,-2.2262,-2.2292,-2.23,-2.2331,-2.2288,-2.2322,-2.2344,-2.231,-2.2354,-2.2356,-2.2368,-2.2422,-2.2445,-2.2426,-2.2532,-2.2496,-2.2503,-2.2505,-2.2535,-2.2548,-2.2558,-2.2415,-2.2414,-2.2414,0,0,-2.2316,-2.2324,-2.2366,-2.2376,-2.239,-2.2386,-2.2396,-2.2404,-2.2405,-2.2449,-2.2424,-2.2449,-2.2493,-2.2503,-2.2514,-2.2599,-2.2578,-2.2606,-2.2655,-2.2687,-2.2697,-2.2706,-2.2737,-2.2748,-2.2613,-2.2613,-2.2613,0,-2.2358,-2.2403,-2.239,-2.2426,-2.244,-2.2411,-2.2453,-2.2463,-2.2484,-2.2494,-2.2472,-2.2527,-2.2533,-2.2588,-2.2609,-2.2618,-2.2629,-2.2605,-2.2697,-2.2706,-2.2714,-2.2743,-2.2755,-2.2616,-2.2616,-2.2616,-2.2615,0,-2.2454,-2.2486,-2.2519,-2.254,-2.2558,-2.2597,-2.2589,-2.2608,-2.2596,-2.2594,-2.2639,-2.2645,-2.267,-2.2682,-2.267,-2.2736,-2.2724,-2.27,-2.2661,-2.273,-2.2757,-2.2768,-2.2621,-2.262,-2.2619,-2.2618,0,0,-2.2565,-2.2579,-2.2591,-2.2601,-2.2615,-2.2639,-2.2676,-2.2701,-2.2718,-2.2733,-2.2764,-2.2802,-2.278,-2.2792,-2.2781,-2.2809,-2.2877,-2.2782,-2.2782,-2.28,-2.295,-2.2969,-2.2982,-2.2863,-2.2865,-2.2867,-2.2949,0,-2.2645,-2.2711,-2.27,-2.2764,-2.2793,-2.2767,-2.2799,-2.2811,-2.281,-2.2835,-2.2833,-2.2861,-2.283,-2.2837,-2.2863,-2.2863,-2.2907,-2.2857,-2.2892,-2.2893,-2.289,-2.2996,-2.3016,-2.3093,-2.296,-2.2962,-2.2963,0,-2.2747,-2.2767,-2.2835,-2.2844,-2.2856,-2.2886,-2.2908,-2.2932,-2.2944,-2.2942,-2.2956,-2.294,-2.2977,-2.2938,-2.2989,-2.2955,-2.2969,-2.2971,-2.2974,-2.2977,-2.2933,-2.3003,-2.3118,-2.313,-2.2979,-2.2978,-2.2977,0,-2.2822,-2.2866,-2.2912,-2.2921,-2.2933,-2.2955,-2.2961,-2.2971,-2.2987,-2.3006,-2.3016,-2.3038,-2.3051,-2.3069,-2.3059,-2.3031,-2.3112,-2.3072,-2.3111,-2.3112,-2.313,-2.3129,-2.325,-2.3138,-2.3138,-2.3137,-2.3137,0,-2.2913,-2.2955,-2.2946,-2.2974,-2.3021,-2.3007,-2.3054,-2.3056,-2.3066,-2.3094,-2.3072,-2.3099,-2.3084,-2.311,-2.3102,-2.3146,-2.3152,-2.3151,-2.3148,-2.3153,-2.3153,-2.3162,-2.3157,-2.3141,-2.314,-2.3139,-2.3139,0,-2.3004,-2.2999,-2.3048,-2.3056,-2.3059,-2.3093,-2.31,-2.3126,-2.3124,-2.316,-2.3167,-2.3164,-2.3193,-2.3185,-2.3216,-2.3211,-2.3267,-2.3257,-2.3263,-2.3261,-2.3301,-2.3298,-2.3432,-2.345,-2.3326,-2.3327,-2.3328,0,-2.3063,-2.3095,-2.3107,-2.3125,-2.3133,-2.3162,-2.3178,-2.3166,-2.3184,-2.3201,-2.3226,-2.3253,-2.3274,-2.3322,-2.3321,-2.3345,-2.3336,-2.3382,-2.334,-2.3344,-2.3338,-2.3336,-2.334,-2.339,-2.3392,-2.3393,-2.3394,0,-2.3168,-2.3164,-2.3189,-2.3214,-2.3234,-2.3252,-2.3268,-2.3284,-2.3273,-2.3294,-2.3324,-2.3341,-2.3374,-2.3401,-2.3423,-2.3428,-2.341,-2.3407,-2.3418,-2.3423,-2.3426,-2.3426,-2.3287,-2.3404,-2.3403,-2.3402,-2.3402,-2.3401,-2.3245,-2.3273,-2.3286,-2.3315,-2.3326,-2.3342,-2.3367,-2.3369,-2.3394,-2.342,-2.3411,-2.3446,-2.3458,-2.3486,-2.3494,-2.352,-2.3503,-2.3518,-2.3522,-2.3526,-2.3532,-2.3421,-2.3524,-2.3524,-2.3523,-2.3523,-2.3523,0,-2.335,-2.3357,-2.3384,-2.3408,-2.343,-2.3411,-2.3428,-2.3448,-2.3479,-2.3493,-2.3514,-2.3549,-2.3576,-2.3578,-2.3603,-2.3624,-2.3616,-2.3631,-2.3629,-2.3631,-2.3545,-2.3534,-2.3637,-2.3637,-2.3637,-2.3637,-2.3637,-2.3637,-2.3407,-2.3453,-2.3451,-2.3503,-2.3509,-2.3544,-2.3555,-2.357,-2.358,-2.3621,-2.3643,-2.3645,-2.3653,-2.3679,-2.3703,-2.3703,-2.3713,-2.3732,-2.3728,-2.3648,-2.3637,-2.3626,-2.3616,-2.3734,-2.3734,-2.3812,-2.3813,-2.3813]}]]